O3B FM2 (39190 NORAD) Tracking and Keplerian Element Data

This shows tracking and keplerian element data for the satellite.

Feedback or suggestion? Click here.




ElementValue
Catalog39190
NameO3B FM2
Epoch Orbit9245
Epoch Day198.5545713
Epoch Year2018
RAAN25.4082
Inclination0.0515
Eccentricity0.0006172
Argument of Perigee144.6843
Mean Anonmoly189.9161
Mean Motion5.00115744
Decay Rate-2.7E-07
L11 39190U 13031C 18198.55457130 -.00000027 00000-0 00000-0 0 9997
L22 39190 0.0515 25.4082 0006172 144.6843 189.9161 5.00115744 92454

Live tracking and technical data element details for O3B FM2 (NORAD 39190). O3B FM2 can be tracked NOW for your location showing map with azimuth and elevation plus other details from your city location.

Track the satellite on the map from your city or location and see movement details for azimuth, elevation, latitude, longitude, range, height, and movement on the map or in text.







IsCatalogInMostPopularTable: catalog: 39190, numindb: 67
Update: records affected: 1



GetName: 39190 O3B FM2

Hit Count: updated at: Fri, 20 Jul 2018 20:27:52 GMT